107  
SXUS52 KTAE 271319  
OSOTAE  
OSOTAE  
NORTH FLORIDA/SOUTH ALABAMA/SOUTHWEST GEORGIA WEATHER ROUNDUP  
NATIONAL WEATHER SERVICE TALLAHASSEE FLORIDA  
900 AM EDT TUE JUN 27 2017  
 
NOTE: "FAIR" INDICATES FEW OR NO CLOUDS BELOW 12,000 FEET WITH NO  
SIGNIFICANT WEATHER AND/OR OBSTRUCTIONS TO VISIBILITY.  
 
!FLZ017-115-028-034-025-271400   
..NORTH FLORIDA
 
 
 
CITY SKY/WX TMP DP RH WIND PRES REMARKS  
TALLAHASSEE PTSUNNY 76 74 93 CALM 30.02R  
APALACHICOLA CLOUDY 81 77 88 CALM 30.01S  
PERRY MOSUNNY 76 73 92 CALM 30.03R  
CROSS CITY LGT RAIN 75 73 94 N3 30.02S  
JACKSONVILLE PTSUNNY 77 75 93 CALM 30.02S  

 
 
!FLZ112-006-005-002-011-271400   
..FLORIDA PANHANDLE
 
 
 
CITY SKY/WX TMP DP RH WIND PRES REMARKS  
MARIANNA PTSUNNY 77 72 84 N3 30.03R  
BONIFAY NOT AVBL  
PANAMA CITY NW FAIR 79 71 76 CALM 30.02R  
TYNDALL AFB SUNNY 77 70 79 NE3 30.02R  
TYND DRONE APT PTSUNNY 77 70 78 NE3 30.02R  
DE FUNIAK SPR FAIR 76 68 76 E5 30.04R  
EGLIN AFB PTSUNNY 77 69 74 N6 30.01S  
DESTIN CLOUDY 81 78 91 E5 30.02R  
HURLBURT PTSUNNY 77 69 77 NE3 30.01R  
CRESTVIEW CLOUDY 77 68 73 E3 30.05R  
PENSACOLA CLOUDY 78 68 71 NE3 30.02S  

 
 
!ALZ063-066-271400   
..SOUTH ALABAMA
 
 
 
CITY SKY/WX TMP DP RH WIND PRES REMARKS  
DOTHAN MOSUNNY 75 70 84 NE5 30.08R  
OZARK CAIRNS NOT AVBL  
FT RUCKER HELI NOT AVBL  
RUCKER HELI 3 NOT AVBL  
RUCKER HELI 2 NOT AVBL  
FLORALA APT MOSUNNY 77 68 73 E5 30.06R  
ANDALUSIA CLOUDY 75 67 76 NE5 30.05R  
TROY MOSUNNY 72 67 84 NE3 30.07R  
EUFALA FAIR 74 67 78 CALM 30.05R  
MOBILE CLOUDY 76 64 66 N6 30.05R  

 
 
!GAZ120>161-271400   
..SOUTHWEST AND SOUTH CENTRAL GEORGIA
 
 
 
CITY SKY/WX TMP DP RH WIND PRES REMARKS  
THOMASVILLE FAIR 75 75 100 CALM 30.05R  
BAINBRIDGE CLOUDY 77 75 94 CALM 30.04R  
MOODY AFB NOT AVBL  
VALDOSTA CLOUDY 73 72 96 CALM 30.04R  
MOULTRIE CLOUDY 75 72 88 NE3 30.05S  
BLAKELY MOSUNNY 79 70 73 CALM 30.05R  
ALBANY PTSUNNY 76 72 87 CALM 30.06R  
TIFTON CLOUDY 75 74 98 CALM 30.04S  
FITZGERALD PTSUNNY 78 73 86 CALM 30.07R  
CORDELE FAIR 80 71 74 E3 30.06S  
AMERICUS FAIR 73 68 83 NE5 30.08S  
HOMERVILLE FAIR 79 73 83 CALM 30.04S  

 
 
!GMZ750-755-770-775-271400   
..COASTAL AND BUOY OBS
 
 
 
STATION/POSITION TIME TEMP WIND PRES VSBY WAVE  
AIR SEA DIR/SP/G HT/PER  
(UTC) (F) (DEG/KT/KT) (MB) (MI) (FT/S)  
KEATON BEACH 1300 75 50/ 4/ 5 1016.1R  
CEDAR KEY 1300 84 280/ 6/ 9 1016.9R  
C TOWER 1300 82 280/ 8/ 9 1016.9R  
APALACHICOLA BUO 1250 82 84 280/ 6/ 8 1016.1S 1  
PANAMA CITY BUOY 1250 81 83 260/ 2/ 4 1016.1S 1/ 7  
MOBILE BUOY 1300 82 84 320/ 2/ 4 1016.6  
ORANGE BCH AL BU 1250 79 82 50/ 6/ 8 1016.1R 1/ 5  

 
 
 
CLICK HERE TO GO TO PREVIOUS BULLETINS.

The Nexlab FL Page
The Nexlab GA Page
The Nexlab AL Page Main Text Page